Location: Bruch
(44.2051°N, 0.4120°E)
Time: 09:49:08
(UTC+00:00)

Cosmos 2074 Rocket - Pass Details

Date: 29 November 2020
Orbit: 968 x 985 km, 82.9° (Epoch: 26 January)

Event Time Altitude Azimuth Distance (km) Brightness Sun altitude
Rises 05:27:10 0° 190° (S) 3,647 7.0 -18.2°
Reaches altitude 10° 05:29:40 10° 192° (SSW) 2,703 6.3 -17.8°
Maximum altitude 05:35:52 78° 279° (W) 995 3.9 -16.7°
Drops below altitude 10° 05:42:06 10° 5° (N) 2,720 6.2 -15.6°
Sets 05:44:38 0° 7° (N) 3,672 6.9 -15.2°
